Back to catalog

GLOBALSTAR M002

AliveCommunicationsLEO
NORAD 25164·PAYLOAD·🇺🇸 United States

Launched Feb 14, 1998 from Cape Canaveral Space Force Station

Loading…

Next Passes (next 24 hours)

TLE

FreshSource: Space-Track

Epoch: Sep 14, 2026, 04:51 UTC

1 25164U 98008C   26257.20224740 -.00000057  00000-0  37727-3 0  9998
2 25164  52.0002 181.8250 0000915 278.6437  81.4279 11.61517752236824

Track GLOBALSTAR M002 in real time with AllMySat

Download on the App Store